KC1HBM Weather Reports


Display with metric or nautical units.
time (UTC)temp
F
wind
direction
speed
MPH
gust
MPH
rain 1hr
in
rain 24hr
in
rain mn
in
humidity
%
barometer
mb
20240522134848 77 123 2.0 2.0 0.00 0.00 0.00 77 1009.7
20240522134347 77 110 2.0 2.0 0.00 0.00 0.00 77 1009.6
20240522133845 75 103 0.0 0.0 0.00 0.00 0.00 80 1009.7
20240522133345 74 110 1.0 1.0 0.00 0.00 0.00 81 1009.8
20240522132843 75 107 0.0 0.0 0.00 0.00 0.00 81 1009.6
20240522132339 74 108 0.0 0.0 0.00 0.00 0.00 81 1009.6
20240522131837 74 105 0.0 0.0 0.00 0.00 0.00 80 1009.7
20240522131334 74 102 0.0 0.0 0.00 0.00 0.00 82 1009.7
20240522130834 75 19 1.0 2.0 0.00 0.00 0.00 79 1009.8
20240522130333 75 106 0.0 1.0 0.00 0.00 0.00 79 1009.8
20240522125830 75 106 0.0 1.0 0.00 0.00 0.00 80 1010.0
20240522125329 75 114 0.0 1.0 0.00 0.00 0.00 80 1010.0
20240522124827 75 101 1.0 1.0 0.00 0.00 0.00 82 1010.1
20240522124326 74 124 1.0 2.0 0.00 0.00 0.00 82 1010.1
20240522123825 72 115 0.0 1.0 0.00 0.00 0.00 85 1010.2
20240522123324 71 101 0.0 1.0 0.00 0.00 0.00 89 1010.3
20240522122824 69 113 0.0 1.0 0.00 0.00 0.00 95 1010.2
20240522122322 68 115 1.0 1.0 0.00 0.00 0.00 99 1010.3
20240522121820 67 114 0.0 0.0 0.00 0.00 0.00 99 1010.5
20240522121319 66 110 0.0 0.0 0.00 0.00 0.00 99 1010.5
20240522120818 65 105 0.0 0.0 0.00 0.00 0.00 99 1010.4
20240522120317 64 127 0.0 1.0 0.00 0.00 0.00 99 1010.5
20240522115816 64 120 0.0 0.0 0.00 0.00 0.00 99 1010.2
20240522115315 64 123 0.0 0.0 0.00 0.00 0.00 99 1010.5
20240522114815 64 114 0.0 0.0 0.00 0.00 0.00 99 1010.3
20240522114313 63 109 0.0 0.0 0.00 0.00 0.00 99 1010.4
20240522113812 63 105 0.0 0.0 0.00 0.00 0.00 99 1010.4
20240522113311 62 121 0.0 0.0 0.00 0.00 0.00 99 1010.6
20240522112809 62 125 1.0 1.0 0.00 0.00 0.00 99 1010.5
20240522112307 62 116 0.0 0.0 0.00 0.00 0.00 99 1010.4
20240522111805 61 112 0.0 0.0 0.00 0.00 0.00 99 1010.4
20240522111305 61 112 0.0 0.0 0.00 0.00 0.00 99 1010.1
20240522110803 61 112 0.0 0.0 0.00 0.00 0.00 99 1010.2
20240522110303 61 112 0.0 0.0 0.00 0.00 0.00 99 1010.3
20240522105803 61 112 1.0 1.0 0.00 0.00 0.00 99 1010.3
20240522105302 61 112 1.0 1.0 0.00 0.00 0.00 99 1010.3
20240522104800 60 112 0.0 0.0 0.00 0.00 0.00 99 1010.3
20240522104300 60 112 0.0 0.0 0.00 0.00 0.00 99 1010.2
20240522103758 60 110 0.0 0.0 0.00 0.00 0.00 99 1010.1
20240522103257 59 110 0.0 0.0 0.00 0.00 0.00 99 1009.9
20240522102755 59 110 0.0 0.0 0.00 0.00 0.00 99 1010.1
20240522102254 59 110 0.0 0.0 0.00 0.00 0.00 99 1010.0
20240522101752 59 110 0.0 0.0 0.00 0.00 0.00 99 1010.0
20240522101251 59 110 0.0 0.0 0.00 0.00 0.00 99 1009.7
20240522100750 59 110 0.0 0.0 0.00 0.00 0.00 99 1009.6
20240522100249 59 110 0.0 0.0 0.00 0.00 0.00 99 1009.6
20240522095747 59 110 0.0 0.0 0.00 0.00 0.00 99 1009.8
20240522095247 58 110 0.0 0.0 0.00 0.00 0.00 99 1009.7
20240522094745 58 110 0.0 0.0 0.00 0.00 0.00 99 1009.5
20240522094244 58 110 0.0 0.0 0.00 0.00 0.00 99 1009.5
20240522093743 58 110 0.0 0.0 0.00 0.00 0.00 99 1009.4
20240522093243 58 110 0.0 0.0 0.00 0.00 0.00 99 1009.4
20240522092741 58 110 0.0 0.0 0.00 0.00 0.00 99 1009.1
20240522092242 58 108 0.0 0.0 0.00 0.00 0.00 99 1009.2
20240522091740 57 111 0.0 0.0 0.00 0.00 0.00 99 1009.2
20240522091239 58 110 0.0 0.0 0.00 0.00 0.00 99 1009.1
20240522090738 58 110 0.0 0.0 0.00 0.00 0.00 99 1009.1
20240522090237 58 112 0.0 0.0 0.00 0.00 0.00 99 1009.1
20240522085736 58 112 0.0 0.0 0.00 0.00 0.00 99 1009.2
20240522085235 58 112 0.0 0.0 0.00 0.00 0.00 99 1008.9
20240522084734 58 109 0.0 0.0 0.00 0.00 0.00 99 1009.0
20240522084232 58 109 0.0 0.0 0.00 0.00 0.00 99 1008.8
20240522083730 58 109 0.0 0.0 0.00 0.00 0.00 99 1008.6
20240522083229 58 110 0.0 0.0 0.00 0.00 0.00 99 1008.6
20240522082728 58 108 0.0 0.0 0.00 0.00 0.00 99 1008.7
20240522082227 58 108 0.0 0.0 0.00 0.00 0.00 99 1008.7
20240522081725 58 108 0.0 0.0 0.00 0.00 0.00 99 1008.6
20240522081225 58 108 0.0 0.0 0.00 0.00 0.00 99 1008.5
20240522080724 58 108 0.0 0.0 0.00 0.00 0.00 99 1008.2
20240522080222 59 108 0.0 0.0 0.00 0.00 0.00 99 1008.4
20240522075719 59 108 0.0 0.0 0.00 0.00 0.00 99 1008.5
20240522075219 59 108 1.0 1.0 0.00 0.00 0.00 99 1008.6
20240522074718 59 108 0.0 0.0 0.00 0.00 0.00 99 1008.5
20240522073715 59 108 0.0 0.0 0.00 0.00 0.00 99 1008.5
20240522073215 59 108 0.0 0.0 0.00 0.00 0.00 99 1008.9
20240522072713 59 108 0.0 0.0 0.00 0.00 0.00 99 1008.8
20240522072212 59 108 0.0 1.0 0.00 0.00 0.00 99 1008.9
20240522071711 59 108 0.0 0.0 0.00 0.00 0.00 99 1009.0
20240522071210 59 108 0.0 0.0 0.00 0.00 0.00 99 1009.3
20240522070709 59 108 0.0 0.0 0.00 0.00 0.00 99 1008.9
20240522070207 59 108 0.0 0.0 0.00 0.00 0.00 99 1009.0
20240522065705 59 108 0.0 0.0 0.00 0.00 0.00 99 1009.2
20240522065205 59 108 0.0 0.0 0.00 0.00 0.00 99 1009.3
20240522064703 58 108 0.0 0.0 0.00 0.00 0.00 99 1009.3
20240522064202 58 108 0.0 0.0 0.00 0.00 0.00 99 1009.4
20240522063700 58 108 0.0 0.0 0.00 0.00 0.00 99 1009.4
20240522063159 59 108 0.0 0.0 0.00 0.00 0.00 99 1009.3
20240522062657 59 108 0.0 0.0 0.00 0.00 0.00 99 1009.4
20240522062154 59 108 0.0 0.0 0.00 0.00 0.00 99 1009.6
20240522061653 59 108 0.0 0.0 0.00 0.00 0.00 99 1009.7
20240522061151 59 108 0.0 0.0 0.00 0.00 0.00 99 1009.8
20240522060650 59 108 0.0 0.0 0.00 0.00 0.00 99 1009.8
20240522060150 59 108 0.0 0.0 0.00 0.00 0.00 99 1009.8
20240522055649 59 108 0.0 0.0 0.00 0.00 0.00 99 1010.0
20240522055148 59 108 0.0 0.0 0.00 0.00 0.00 99 1010.0
20240522054646 59 108 0.0 0.0 0.00 0.00 0.00 99 1009.8
20240522054146 58 108 0.0 0.0 0.00 0.00 0.00 99 1009.9
20240522053645 58 108 0.0 0.0 0.00 0.00 0.00 99 1010.0
20240522053145 58 108 0.0 0.0 0.00 0.00 0.00 99 1009.9
20240522052644 59 108 0.0 0.0 0.00 0.00 0.00 99 1009.7
20240522052144 59 108 0.0 0.0 0.00 0.00 0.00 99 1009.7
20240522051644 59 108 0.0 0.0 0.00 0.00 0.00 99 1009.6
20240522051143 59 108 0.0 0.0 0.00 0.00 0.00 99 1009.6
20240522050642 59 108 0.0 0.0 0.00 0.00 0.00 99 1009.6
20240522050142 59 108 0.0 0.0 0.00 0.00 0.00 99 1009.5
20240522045640 59 108 0.0 0.0 0.00 0.00 0.00 99 1009.4
20240522045140 59 108 0.0 0.0 0.00 0.00 0.00 99 1009.3
20240522044639 59 108 0.0 0.0 0.00 0.00 0.00 99 1009.4
20240522044138 59 108 0.0 0.0 0.00 0.00 0.00 99 1009.5
20240522043636 60 108 0.0 0.0 0.00 0.00 0.00 99 1009.5
20240522043135 59 108 0.0 0.0 0.00 0.00 0.00 99 1009.5
20240522042636 59 108 0.0 0.0 0.00 0.00 0.00 99 1009.8
20240522042134 59 108 0.0 0.0 0.00 0.00 0.00 99 1009.7
20240522041633 59 108 0.0 0.0 0.00 0.00 0.00 99 1009.5
20240522041133 59 108 0.0 0.0 0.00 0.00 0.00 99 1009.6
20240522040632 59 108 0.0 0.0 0.00 0.00 0.00 99 1009.8
20240522040131 59 108 0.0 0.0 0.00 0.00 0.00 99 1009.6
20240522035631 59 108 0.0 0.0 0.00 0.00 0.00 99 1009.5
20240522035130 60 108 0.0 0.0 0.00 0.00 0.00 99 1009.7
20240522034630 60 108 0.0 0.0 0.00 0.00 0.00 98 1009.6
20240522034129 60 108 0.0 0.0 0.00 0.00 0.00 98 1009.6
20240522033627 60 108 0.0 0.0 0.00 0.00 0.00 98 1009.7
20240522033126 60 108 0.0 0.0 0.00 0.00 0.00 98 1009.7
20240522032625 60 115 0.0 0.0 0.00 0.00 0.00 98 1009.5
20240522032125 61 115 0.0 0.0 0.00 0.00 0.00 98 1009.8
20240522031623 61 115 0.0 0.0 0.00 0.00 0.00 98 1009.6
20240522031122 61 115 0.0 0.0 0.00 0.00 0.00 98 1009.7
20240522030620 61 115 0.0 0.0 0.00 0.00 0.00 97 1009.7
20240522030119 61 115 0.0 0.0 0.00 0.00 0.00 97 1009.6
20240522025616 61 115 0.0 0.0 0.00 0.00 0.00 97 1009.7
20240522025116 61 115 0.0 0.0 0.00 0.00 0.00 97 1009.4
20240522024615 61 115 0.0 0.0 0.00 0.00 0.00 97 1010.1
20240522024114 61 115 0.0 0.0 0.00 0.00 0.00 97 1009.7
20240522023613 61 119 1.0 1.0 0.00 0.00 0.00 97 1009.7
20240522023113 61 111 0.0 0.0 0.00 0.00 0.00 97 1009.8
20240522022613 60 115 1.0 1.0 0.00 0.00 0.00 98 1009.8
20240522022113 60 113 0.0 0.0 0.00 0.00 0.00 98 1010.0
20240522021611 60 115 0.0 1.0 0.00 0.00 0.00 97 1010.3
20240522021112 60 111 0.0 0.0 0.00 0.00 0.00 97 1010.1
20240522020610 60 107 0.0 0.0 0.00 0.00 0.00 97 1010.0
20240522020110 60 115 0.0 0.0 0.00 0.00 0.00 97 1010.1
20240522015608 60 101 0.0 0.0 0.00 0.00 0.00 97 1010.2
20240522015107 60 114 0.0 0.0 0.00 0.00 0.00 97 1010.2
20240522014606 60 115 0.0 0.0 0.00 0.00 0.00 97 1010.0
20240522014104 60 117 1.0 1.0 0.00 0.00 0.00 97 1010.1
20240522013603 60 115 0.0 0.0 0.00 0.00 0.00 97 1010.2
20240522013102 60 115 0.0 0.0 0.00 0.00 0.00 97 1010.1
20240522012602 60 115 0.0 0.0 0.00 0.00 0.00 97 1009.9
20240522012101 60 115 0.0 0.0 0.00 0.00 0.00 97 1010.1
20240522011600 60 115 0.0 0.0 0.00 0.00 0.00 96 1009.9
20240522011059 60 115 1.0 1.0 0.00 0.00 0.00 96 1010.1
20240522010558 60 116 0.0 0.0 0.00 0.00 0.00 96 1010.2
20240522010056 60 123 1.0 2.0 0.00 0.00 0.00 96 1010.1
20240522005556 60 117 0.0 1.0 0.00 0.00 0.00 96 1010.3
20240522005054 60 113 1.0 1.0 0.00 0.00 0.00 96 1010.4
20240522004553 60 112 0.0 1.0 0.00 0.00 0.00 96 1010.2
20240522004052 60 114 1.0 2.0 0.00 0.00 0.00 96 1010.3
20240522003551 60 112 1.0 2.0 0.00 0.00 0.00 96 1010.2
20240522003050 60 112 0.0 0.0 0.00 0.00 0.00 95 1010.3
20240522002549 60 112 0.0 0.0 0.00 0.00 0.00 95 1010.3
20240522002047 60 112 0.0 0.0 0.00 0.00 0.00 95 1010.3
20240522001546 60 112 0.0 0.0 0.00 0.00 0.00 95 1010.2
20240522001045 60 114 0.0 1.0 0.00 0.00 0.00 95 1009.9
20240522000544 60 112 0.0 0.0 0.00 0.00 0.00 96 1009.7
20240522000042 60 112 0.0 1.0 0.00 0.00 0.00 96 1009.9
20240521235541 60 112 0.0 0.0 0.00 0.00 0.00 95 1009.9
20240521235040 60 112 1.0 1.0 0.00 0.00 0.00 95 1009.7
20240521234538 60 112 0.0 1.0 0.00 0.00 0.00 95 1009.8
20240521234037 60 113 1.0 1.0 0.00 0.00 0.00 95 1009.6
20240521233536 60 112 0.0 0.0 0.00 0.00 0.00 95 1009.6
20240521233035 60 114 1.0 1.0 0.00 0.00 0.00 95 1009.6
20240521232533 60 112 0.0 1.0 0.00 0.00 0.00 94 1009.4
20240521232032 61 112 0.0 1.0 0.00 0.00 0.00 94 1009.3
20240521231531 61 119 1.0 1.0 0.00 0.00 0.00 93 1009.2
20240521231030 61 114 0.0 0.0 0.00 0.00 0.00 94 1009.3
20240521230528 61 107 0.0 0.0 0.00 0.00 0.00 93 1009.4
20240521230026 61 114 0.0 0.0 0.00 0.00 0.00 93 1009.4
20240521225525 61 114 1.0 1.0 0.00 0.00 0.00 94 1009.3
20240521225025 62 115 0.0 0.0 0.00 0.00 0.00 94 1009.2
20240521224508 61 117 1.0 1.0 0.00 0.00 0.00 94 1009.3
20240521224006 62 114 0.0 1.0 0.00 0.00 0.00 95 1009.3
20240521223506 61 113 0.0 0.0 0.00 0.00 0.00 95 1009.3
20240521223004 60 112 0.0 0.0 0.00 0.00 0.00 95 1009.0
20240521222502 60 118 0.0 0.0 0.00 0.00 0.00 95 1009.1
20240521222001 60 114 0.0 1.0 0.00 0.00 0.00 94 1008.8
20240521221500 60 113 1.0 1.0 0.00 0.00 0.00 94 1008.7
20240521220959 61 121 4.0 5.0 0.00 0.00 0.00 92 1008.9
20240521220458 61 112 0.0 0.0 0.00 0.00 0.00 92 1009.2
20240521215957 61 117 3.0 3.0 0.00 0.00 0.00 92 1009.0
20240521215456 61 113 1.0 1.0 0.00 0.00 0.00 90 1009.5
20240521214956 61 107 0.0 1.0 0.00 0.00 0.00 90 1009.7
20240521214454 61 115 1.0 2.0 0.00 0.00 0.00 89 1009.5
20240521213952 62 115 2.0 2.0 0.00 0.00 0.00 89 1009.5
20240521213452 62 115 0.0 0.0 0.00 0.00 0.00 89 1009.8
20240521212952 62 120 2.0 2.0 0.00 0.00 0.00 88 1009.6
20240521212451 62 113 1.0 1.0 0.00 0.00 0.00 88 1009.8
20240521211949 62 144 3.0 3.0 0.00 0.00 0.00 87 1010.0
20240521211447 62 112 1.0 1.0 0.00 0.00 0.00 87 1009.5
20240521210947 63 118 2.0 2.0 0.00 0.00 0.00 87 1009.8
20240521210446 62 112 0.0 1.0 0.00 0.00 0.00 88 1009.9
20240521205944 63 127 2.0 3.0 0.00 0.00 0.00 87 1009.6
20240521205442 62 148 3.0 3.0 0.00 0.00 0.00 87 1009.5
20240521204942 62 111 2.0 2.0 0.00 0.00 0.00 87 1009.7
20240521204440 63 119 4.0 5.0 0.00 0.00 0.00 87 1009.6
20240521203937 63 117 3.0 5.0 0.00 0.00 0.00 87 1009.5
20240521203436 63 119 1.0 2.0 0.00 0.00 0.00 86 1009.7
20240521202934 63 136 2.0 2.0 0.00 0.00 0.00 85 1009.5
20240521202434 65 113 7.0 8.0 0.00 0.00 0.00 85 1009.7
20240521201932 65 122 2.0 2.0 0.00 0.00 0.00 83 1009.8
20240521201431 65 138 3.0 6.0 0.00 0.00 0.00 82 1009.7
20240521200930 65 130 2.0 2.0 0.00 0.00 0.00 83 1009.7
20240521200429 65 118 4.0 5.0 0.00 0.00 0.00 84 1009.7
20240521195927 66 113 3.0 5.0 0.00 0.00 0.00 82 1009.7
20240521195426 65 131 3.0 3.0 0.00 0.00 0.00 82 1009.7
20240521194924 65 124 2.0 2.0 0.00 0.00 0.00 83 1009.9
20240521194423 64 116 2.0 2.0 0.00 0.00 0.00 86 1009.9
20240521193921 63 110 2.0 2.0 0.00 0.00 0.00 85 1009.8
20240521193421 63 119 3.0 3.0 0.00 0.00 0.00 86 1009.9
20240521192919 63 121 3.0 3.0 0.00 0.00 0.00 86 1009.9
20240521192417 63 122 3.0 3.0 0.00 0.00 0.00 86 1010.0
20240521191916 62 112 5.0 6.0 0.00 0.00 0.00 87 1010.2
20240521191415 62 122 5.0 7.0 0.00 0.00 0.00 87 1010.1
20240521190913 63 116 6.0 8.0 0.00 0.00 0.00 86 1010.0
20240521190413 62 120 4.0 6.0 0.00 0.00 0.00 87 1010.1
20240521185912 62 121 3.0 3.0 0.00 0.00 0.00 87 1010.2
20240521185411 62 124 3.0 3.0 0.00 0.00 0.00 88 1010.4
20240521184909 62 112 5.0 6.0 0.00 0.00 0.00 86 1010.2
20240521184408 64 117 5.0 6.0 0.00 0.00 0.00 86 1010.1
20240521183906 64 133 3.0 3.0 0.00 0.00 0.00 84 1010.2
20240521183405 63 110 3.0 5.0 0.00 0.00 0.00 85 1010.3
20240521182903 62 134 4.0 5.0 0.00 0.00 0.00 88 1010.2
20240521182401 62 161 4.0 6.0 0.00 0.00 0.00 86 1010.3
20240521181901 63 121 4.0 5.0 0.00 0.00 0.00 87 1010.2
20240521181400 62 130 5.0 6.0 0.00 0.00 0.00 87 1010.5
20240521180859 62 115 4.0 5.0 0.00 0.00 0.00 88 1010.6
20240521180357 62 120 6.0 7.0 0.00 0.00 0.00 87 1010.3
20240521175855 61 118 3.0 5.0 0.00 0.00 0.00 89 1010.3
20240521175354 62 118 6.0 8.0 0.00 0.00 0.00 89 1010.6
20240521174852 61 118 6.0 8.0 0.00 0.00 0.00 90 1010.5
20240521174351 62 121 4.0 5.0 0.00 0.00 0.00 89 1010.5
20240521173849 61 123 4.0 5.0 0.00 0.00 0.00 91 1010.6
20240521173348 60 117 7.0 7.0 0.00 0.00 0.00 91 1010.6
20240521172846 61 115 3.0 5.0 0.00 0.00 0.00 90 1010.6
20240521172344 62 130 5.0 6.0 0.00 0.00 0.00 88 1010.6
20240521171843 61 117 3.0 5.0 0.00 0.00 0.00 89 1010.7
20240521171342 60 117 5.0 5.0 0.00 0.00 0.00 91 1010.4
20240521170842 59 132 3.0 3.0 0.00 0.00 0.00 92 1010.8
20240521170341 60 116 5.0 7.0 0.00 0.00 0.00 91 1010.6
20240521165839 60 120 5.0 6.0 0.00 0.00 0.00 91 1010.8
20240521165339 60 117 2.0 3.0 0.00 0.00 0.00 92 1010.8
20240521164838 60 117 5.0 6.0 0.00 0.00 0.00 93 1010.8
20240521164337 59 145 2.0 2.0 0.00 0.00 0.00 93 1010.7
20240521163836 59 119 4.0 5.0 0.00 0.00 0.00 92 1011.0
20240521163334 59 127 4.0 5.0 0.00 0.00 0.00 94 1011.1
20240521162834 61 117 7.0 8.0 0.00 0.00 0.00 91 1011.0
20240521162332 62 121 5.0 6.0 0.00 0.00 0.00 89 1011.1
20240521161831 61 128 4.0 5.0 0.00 0.00 0.00 90 1011.1
20240521161329 62 118 3.0 5.0 0.00 0.00 0.00 89 1010.9
20240521160827 62 117 5.0 7.0 0.00 0.00 0.00 88 1011.4
20240521160326 61 110 3.0 3.0 0.00 0.00 0.00 90 1011.3
20240521155825 62 112 4.0 5.0 0.00 0.00 0.00 88 1011.2
20240521155324 61 110 3.0 3.0 0.00 0.00 0.00 90 1011.3
20240521154823 61 121 4.0 5.0 0.00 0.00 0.00 91 1011.2
20240521154321 60 122 3.0 5.0 0.00 0.00 0.00 91 1011.4
20240521153820 61 114 4.0 5.0 0.00 0.00 0.00 90 1011.5
20240521153319 61 119 4.0 6.0 0.00 0.00 0.00 91 1011.5
20240521152815 61 117 4.0 5.0 0.00 0.00 0.00 90 1011.7
20240521152314 60 118 6.0 6.0 0.00 0.00 0.00 91 1011.9
20240521151812 61 124 4.0 5.0 0.00 0.00 0.00 91 1011.8
20240521151311 61 119 4.0 5.0 0.00 0.00 0.00 91 1011.5
20240521150810 62 121 3.0 3.0 0.00 0.00 0.00 89 1011.7
20240521150309 61 122 3.0 3.0 0.00 0.00 0.00 90 1011.7
20240521145809 62 120 4.0 5.0 0.00 0.00 0.00 90 1011.8
20240521145306 61 119 5.0 5.0 0.00 0.00 0.00 91 1011.7
20240521144805 62 132 3.0 3.0 0.00 0.00 0.00 91 1011.6
20240521144305 61 120 3.0 3.0 0.00 0.00 0.00 91 1011.7
20240521143804 61 116 3.0 3.0 0.00 0.00 0.00 91 1011.7
20240521143305 61 116 4.0 5.0 0.00 0.00 0.00 92 1011.9
20240521142803 60 109 4.0 5.0 0.00 0.00 0.00 92 1011.7
20240521142303 62 120 2.0 2.0 0.00 0.00 0.00 91 1011.7
20240521141802 61 113 1.0 2.0 0.00 0.00 0.00 92 1011.8
20240521141300 62 115 2.0 2.0 0.00 0.00 0.00 91 1011.9
20240521140758 60 111 3.0 3.0 0.00 0.00 0.00 92 1011.8
20240521140257 60 114 3.0 3.0 0.00 0.00 0.00 93 1011.8
20240521135757 60 116 2.0 2.0 0.00 0.00 0.00 93 1012.0
20240521135257 60 116 1.0 1.0 0.00 0.00 0.00 93 1012.0